| time (UTC) | temp C | wind direction | speed KPH | gust KPH | rain 1hr cm | rain 24hr cm | rain mn cm | humidity % | barometer mb |
| 20260508023223 | 11 | 76 | 0.0 | 3.2 | 0.00 | 0.00 | 0.00 | 51 | 1015.7 |
| 20260508022719 | 11 | 193 | 1.6 | 3.2 | 0.00 | 0.00 | 0.00 | 50 | 1015.6 |
| 20260508022216 | 11 | 114 | 1.6 | 4.8 | 0.00 | 0.00 | 0.00 | 49 | 1015.5 |
| 20260508021712 | 12 | 235 | 0.0 | 17.7 | 0.00 | 0.00 | 0.00 | 46 | 1015.6 |
| 20260508021208 | 11 | 324 | 4.8 | 6.4 | 0.00 | 0.00 | 0.00 | 49 | 1015.5 |
| 20260508020706 | 12 | 335 | 3.2 | 6.4 | 0.00 | 0.00 | 0.00 | 49 | 1015.4 |
| 20260508020202 | 12 | 355 | 6.4 | 9.7 | 0.00 | 0.00 | 0.00 | 47 | 1015.4 |
| 20260508015700 | 10 | 305 | 0.0 | 6.4 | 0.00 | 0.00 | 0.00 | 57 | 1015.4 |
| 20260508015157 | 11 | 32 | 0.0 | 6.4 | 0.00 | 0.00 | 0.00 | 55 | 1015.3 |
| 20260508014653 | 10 | 333 | 4.8 | 4.8 | 0.00 | 0.00 | 0.00 | 57 | 1015.2 |
| 20260508014149 | 11 | 246 | 1.6 | 3.2 | 0.00 | 0.00 | 0.00 | 56 | 1015.5 |
| 20260508013646 | 11 | 292 | 3.2 | 4.8 | 0.00 | 0.00 | 0.00 | 53 | 1015.3 |
| 20260508013142 | 11 | 128 | 1.6 | 4.8 | 0.00 | 0.00 | 0.00 | 51 | 1015.4 |
| 20260508012640 | 11 | 242 | 0.0 | 3.2 | 0.00 | 0.00 | 0.00 | 50 | 1015.1 |
| 20260508012137 | 12 | 221 | 3.2 | 3.2 | 0.00 | 0.00 | 0.00 | 48 | 1015.1 |
| 20260508011635 | 12 | 32 | 0.0 | 1.6 | 0.00 | 0.00 | 0.00 | 49 | 1014.8 |
| 20260508011132 | 12 | 321 | 0.0 | 3.2 | 0.00 | 0.00 | 0.00 | 48 | 1014.7 |
| 20260508010629 | 12 | 243 | 0.0 | 3.2 | 0.00 | 0.00 | 0.00 | 46 | 1014.7 |
| 20260508010127 | 12 | 313 | 4.8 | 4.8 | 0.00 | 0.00 | 0.00 | 48 | 1014.7 |
| 20260508005624 | 13 | 321 | 3.2 | 4.8 | 0.00 | 0.00 | 0.00 | 47 | 1014.6 |
| 20260508005120 | 13 | 204 | 6.4 | 8.0 | 0.00 | 0.00 | 0.00 | 48 | 1014.4 |
| 20260508004616 | 13 | 355 | 4.8 | 8.0 | 0.00 | 0.00 | 0.00 | 44 | 1014.4 |
| 20260508004113 | 13 | 337 | 8.0 | 12.9 | 0.00 | 0.00 | 0.00 | 44 | 1014.5 |
| 20260508003609 | 13 | 153 | 14.5 | 16.1 | 0.00 | 0.00 | 0.00 | 44 | 1014.2 |
| 20260508003107 | 13 | 320 | 3.2 | 6.4 | 0.00 | 0.00 | 0.00 | 44 | 1014.4 |
| 20260508002603 | 13 | 195 | 8.0 | 9.7 | 0.00 | 0.00 | 0.00 | 43 | 1014.3 |
| 20260508002101 | 14 | 244 | 4.8 | 9.7 | 0.00 | 0.00 | 0.00 | 43 | 1014.4 |
| 20260508001556 | 13 | 295 | 6.4 | 14.5 | 0.00 | 0.00 | 0.00 | 43 | 1014.3 |
| 20260508001053 | 14 | 140 | 0.0 | 4.8 | 0.00 | 0.00 | 0.00 | 45 | 1014.1 |
| 20260508000548 | 14 | 260 | 3.2 | 9.7 | 0.00 | 0.00 | 0.00 | 42 | 1013.9 |
| 20260508000046 | 14 | 278 | 1.6 | 4.8 | 0.00 | 0.00 | 0.00 | 43 | 1014.1 |
| 20260507235542 | 14 | 193 | 0.0 | 1.6 | 0.00 | 0.00 | 0.00 | 45 | 1013.9 |
| 20260507235040 | 15 | 337 | 3.2 | 8.0 | 0.00 | 0.00 | 0.00 | 42 | 1013.8 |
| 20260507234536 | 15 | 252 | 1.6 | 4.8 | 0.00 | 0.00 | 0.00 | 41 | 1013.7 |
| 20260507234033 | 15 | 302 | 3.2 | 4.8 | 0.00 | 0.00 | 0.00 | 42 | 1013.6 |
| 20260507233530 | 15 | 295 | 3.2 | 4.8 | 0.00 | 0.00 | 0.00 | 42 | 1013.5 |
| 20260507233028 | 15 | 279 | 3.2 | 3.2 | 0.00 | 0.00 | 0.00 | 41 | 1013.5 |
| 20260507232524 | 15 | 206 | 6.4 | 6.4 | 0.00 | 0.00 | 0.00 | 40 | 1013.4 |
| 20260507232022 | 16 | 156 | 3.2 | 9.7 | 0.00 | 0.00 | 0.00 | 38 | 1013.2 |
| 20260507231518 | 15 | 298 | 9.7 | 22.5 | 0.00 | 0.00 | 0.00 | 38 | 1013.4 |
| 20260507231015 | 16 | 199 | 4.8 | 9.7 | 0.00 | 0.00 | 0.00 | 42 | 1013.2 |
| 20260507230512 | 16 | 358 | 9.7 | 14.5 | 0.00 | 0.00 | 0.00 | 38 | 1013.2 |
| 20260507230008 | 16 | 243 | 1.6 | 6.4 | 0.00 | 0.00 | 0.00 | 40 | 1013.1 |
| 20260507225503 | 17 | 247 | 4.8 | 11.3 | 0.00 | 0.00 | 0.00 | 38 | 1013.0 |
| 20260507225000 | 16 | 265 | 3.2 | 9.7 | 0.00 | 0.00 | 0.00 | 40 | 1012.9 |
| 20260507224455 | 16 | 332 | 4.8 | 6.4 | 0.00 | 0.00 | 0.00 | 41 | 1012.9 |
| 20260507223953 | 16 | 338 | 3.2 | 9.7 | 0.00 | 0.00 | 0.00 | 40 | 1013.0 |
| 20260507223448 | 16 | 293 | 3.2 | 14.5 | 0.00 | 0.00 | 0.00 | 39 | 1012.7 |
| 20260507222946 | 17 | 207 | 4.8 | 12.9 | 0.00 | 0.00 | 0.00 | 39 | 1012.7 |
| 20260507222443 | 17 | 281 | 4.8 | 9.7 | 0.00 | 0.00 | 0.00 | 39 | 1012.7 |
| 20260507221939 | 17 | 290 | 3.2 | 9.7 | 0.00 | 0.00 | 0.00 | 39 | 1012.5 |
| 20260507221436 | 17 | 238 | 8.0 | 9.7 | 0.00 | 0.00 | 0.00 | 38 | 1012.4 |
| 20260507220932 | 17 | 322 | 6.4 | 9.7 | 0.00 | 0.00 | 0.00 | 41 | 1012.3 |
| 20260507220430 | 17 | 160 | 6.4 | 9.7 | 0.00 | 0.00 | 0.00 | 41 | 1012.1 |
| 20260507215926 | 17 | 318 | 4.8 | 6.4 | 0.00 | 0.00 | 0.00 | 41 | 1012.2 |
| 20260507215423 | 17 | 298 | 4.8 | 6.4 | 0.00 | 0.00 | 0.00 | 40 | 1012.1 |
| 20260507214920 | 17 | 286 | 6.4 | 9.7 | 0.00 | 0.00 | 0.00 | 40 | 1012.2 |
| 20260507214418 | 17 | 355 | 3.2 | 9.7 | 0.00 | 0.00 | 0.00 | 40 | 1011.9 |
| 20260507213913 | 17 | 351 | 6.4 | 8.0 | 0.00 | 0.00 | 0.00 | 41 | 1011.9 |
| 20260507213410 | 17 | 351 | 6.4 | 8.0 | 0.00 | 0.00 | 0.00 | 40 | 1012.0 |
| 20260507212907 | 17 | 209 | 6.4 | 19.3 | 0.00 | 0.00 | 0.00 | 41 | 1012.0 |
| 20260507212403 | 17 | 340 | 9.7 | 14.5 | 0.00 | 0.00 | 0.00 | 41 | 1012.0 |
| 20260507211900 | 17 | 308 | 3.2 | 14.5 | 0.00 | 0.00 | 0.00 | 42 | 1011.9 |
| 20260507211356 | 17 | 303 | 4.8 | 12.9 | 0.00 | 0.00 | 0.00 | 42 | 1011.9 |
| 20260507210853 | 18 | 316 | 8.0 | 9.7 | 0.00 | 0.00 | 0.00 | 41 | 1011.6 |
| 20260507210350 | 17 | 2 | 3.2 | 14.5 | 0.00 | 0.00 | 0.00 | 40 | 1011.7 |
| 20260507205847 | 17 | 283 | 6.4 | 11.3 | 0.00 | 0.00 | 0.00 | 41 | 1011.6 |
| 20260507205343 | 17 | 282 | 8.0 | 12.9 | 0.00 | 0.00 | 0.00 | 41 | 1011.7 |
| 20260507204840 | 18 | 336 | 9.7 | 14.5 | 0.00 | 0.00 | 0.00 | 40 | 1011.5 |
| 20260507204337 | 17 | 337 | 11.3 | 14.5 | 0.00 | 0.00 | 0.00 | 42 | 1011.6 |
| 20260507203835 | 18 | 316 | 4.8 | 8.0 | 0.00 | 0.00 | 0.00 | 40 | 1011.6 |
| 20260507203333 | 18 | 324 | 8.0 | 8.0 | 0.00 | 0.00 | 0.00 | 38 | 1011.5 |
| 20260507202828 | 18 | 249 | 4.8 | 19.3 | 0.00 | 0.00 | 0.00 | 39 | 1011.8 |
| 20260507202325 | 18 | 350 | 9.7 | 14.5 | 0.00 | 0.00 | 0.00 | 40 | 1011.6 |
| 20260507201820 | 18 | 316 | 8.0 | 9.7 | 0.00 | 0.00 | 0.00 | 40 | 1011.5 |
| 20260507201316 | 18 | 322 | 8.0 | 11.3 | 0.00 | 0.00 | 0.00 | 40 | 1011.5 |
| 20260507200813 | 17 | 167 | 3.2 | 9.7 | 0.00 | 0.00 | 0.00 | 41 | 1011.6 |
| 20260507200309 | 17 | 283 | 8.0 | 19.3 | 0.00 | 0.00 | 0.00 | 40 | 1011.5 |
| 20260507195805 | 17 | 316 | 8.0 | 14.5 | 0.00 | 0.00 | 0.00 | 40 | 1011.7 |
| 20260507195305 | 19 | 293 | 6.4 | 9.7 | 0.00 | 0.00 | 0.00 | 38 | 1011.5 |
| 20260507194800 | 20 | 172 | 9.7 | 19.3 | 0.00 | 0.00 | 0.00 | 38 | 1011.6 |
| 20260507194255 | 21 | 3 | 6.4 | 6.4 | 0.00 | 0.00 | 0.00 | 37 | 1011.7 |
| 20260507193752 | 19 | 291 | 8.0 | 9.7 | 0.00 | 0.00 | 0.00 | 38 | 1011.6 |
| 20260507193249 | 18 | 312 | 8.0 | 12.9 | 0.00 | 0.00 | 0.00 | 39 | 1011.6 |
| 20260507192745 | 20 | 298 | 6.4 | 16.1 | 0.00 | 0.00 | 0.00 | 38 | 1012.1 |
| 20260507192242 | 20 | 119 | 0.0 | 14.5 | 0.00 | 0.00 | 0.00 | 37 | 1011.7 |
| 20260507191738 | 21 | 352 | 1.6 | 11.3 | 0.00 | 0.00 | 0.00 | 40 | 1011.9 |
| 20260507191235 | 19 | 178 | 9.7 | 9.7 | 0.00 | 0.00 | 0.00 | 40 | 1011.8 |
| 20260507190732 | 18 | 355 | 6.4 | 14.5 | 0.00 | 0.00 | 0.00 | 44 | 1011.9 |
| 20260507190231 | 20 | 349 | 11.3 | 17.7 | 0.00 | 0.00 | 0.00 | 40 | 1012.3 |
| 20260507185729 | 20 | 288 | 6.4 | 8.0 | 0.00 | 0.00 | 0.00 | 39 | 1012.1 |
| 20260507185225 | 18 | 285 | 8.0 | 12.9 | 0.00 | 0.00 | 0.00 | 42 | 1012.2 |
| 20260507184723 | 20 | 193 | 9.7 | 12.9 | 0.00 | 0.00 | 0.00 | 38 | 1012.0 |
| 20260507184221 | 19 | 174 | 4.8 | 11.3 | 0.00 | 0.00 | 0.00 | 43 | 1012.2 |
| 20260507183717 | 18 | 354 | 12.9 | 14.5 | 0.00 | 0.00 | 0.00 | 44 | 1012.1 |
| 20260507183214 | 18 | 245 | 8.0 | 8.0 | 0.00 | 0.00 | 0.00 | 43 | 1012.1 |
| 20260507182711 | 18 | 326 | 6.4 | 14.5 | 0.00 | 0.00 | 0.00 | 45 | 1012.3 |
| 20260507182206 | 18 | 248 | 3.2 | 14.5 | 0.00 | 0.00 | 0.00 | 45 | 1012.3 |
| 20260507181703 | 17 | 342 | 11.3 | 12.9 | 0.00 | 0.00 | 0.00 | 48 | 1012.2 |
| 20260507181200 | 17 | 345 | 8.0 | 12.9 | 0.00 | 0.00 | 0.00 | 49 | 1012.3 |
| 20260507180656 | 17 | 330 | 11.3 | 16.1 | 0.00 | 0.00 | 0.00 | 48 | 1012.3 |
| 20260507180153 | 18 | 189 | 3.2 | 6.4 | 0.00 | 0.00 | 0.00 | 48 | 1012.1 |
| 20260507175649 | 17 | 325 | 8.0 | 8.0 | 0.00 | 0.00 | 0.00 | 50 | 1012.3 |
| 20260507175146 | 18 | 320 | 12.9 | 14.5 | 0.00 | 0.00 | 0.00 | 47 | 1012.6 |
| 20260507174643 | 18 | 280 | 1.6 | 9.7 | 0.00 | 0.00 | 0.00 | 48 | 1012.6 |
| 20260507174142 | 18 | 60 | 0.0 | 8.0 | 0.00 | 0.00 | 0.00 | 49 | 1012.6 |
| 20260507173638 | 17 | 304 | 6.4 | 11.3 | 0.00 | 0.00 | 0.00 | 50 | 1013.0 |
| 20260507173135 | 18 | 235 | 4.8 | 14.5 | 0.00 | 0.00 | 0.00 | 50 | 1013.0 |
| 20260507172631 | 17 | 183 | 3.2 | 9.7 | 0.00 | 0.00 | 0.00 | 50 | 1013.3 |
| 20260507172129 | 17 | 294 | 3.2 | 8.0 | 0.00 | 0.00 | 0.00 | 50 | 1013.1 |
| 20260507171624 | 17 | 296 | 4.8 | 16.1 | 0.00 | 0.00 | 0.00 | 53 | 1013.2 |
| 20260507171121 | 17 | 129 | 4.8 | 8.0 | 0.00 | 0.00 | 0.00 | 52 | 1013.2 |
| 20260507170618 | 16 | 224 | 3.2 | 6.4 | 0.00 | 0.00 | 0.00 | 52 | 1013.3 |
| 20260507170115 | 16 | 349 | 6.4 | 11.3 | 0.00 | 0.00 | 0.00 | 54 | 1013.5 |
| 20260507165611 | 16 | 331 | 4.8 | 8.0 | 0.00 | 0.00 | 0.00 | 52 | 1013.3 |
| 20260507165107 | 16 | 272 | 6.4 | 8.0 | 0.00 | 0.00 | 0.00 | 53 | 1013.6 |
| 20260507164603 | 15 | 343 | 4.8 | 8.0 | 0.00 | 0.00 | 0.00 | 55 | 1013.6 |
| 20260507164100 | 15 | 317 | 4.8 | 8.0 | 0.00 | 0.00 | 0.00 | 55 | 1013.8 |
| 20260507163558 | 15 | 328 | 0.0 | 4.8 | 0.00 | 0.00 | 0.00 | 55 | 1013.8 |
| 20260507163056 | 16 | 311 | 8.0 | 9.7 | 0.00 | 0.00 | 0.00 | 51 | 1013.6 |
| 20260507162555 | 16 | 261 | 3.2 | 9.7 | 0.00 | 0.00 | 0.00 | 49 | 1013.7 |
| 20260507162053 | 16 | 352 | 4.8 | 6.4 | 0.00 | 0.00 | 0.00 | 52 | 1014.0 |
| 20260507161549 | 17 | 314 | 6.4 | 11.3 | 0.00 | 0.00 | 0.00 | 52 | 1013.8 |
| 20260507161046 | 16 | 339 | 4.8 | 8.0 | 0.00 | 0.00 | 0.00 | 52 | 1013.8 |
| 20260507160542 | 15 | 327 | 6.4 | 14.5 | 0.00 | 0.00 | 0.00 | 54 | 1014.2 |
| 20260507160038 | 16 | 326 | 8.0 | 9.7 | 0.00 | 0.00 | 0.00 | 55 | 1014.2 |
| 20260507155534 | 16 | 327 | 4.8 | 8.0 | 0.00 | 0.00 | 0.00 | 55 | 1014.1 |
| 20260507155031 | 15 | 306 | 4.8 | 8.0 | 0.00 | 0.00 | 0.00 | 56 | 1014.4 |
| 20260507154528 | 15 | 344 | 6.4 | 14.5 | 0.00 | 0.00 | 0.00 | 56 | 1014.4 |
| 20260507154025 | 15 | 188 | 6.4 | 9.7 | 0.00 | 0.00 | 0.00 | 56 | 1014.7 |
| 20260507153521 | 15 | 341 | 9.7 | 9.7 | 0.00 | 0.00 | 0.00 | 59 | 1014.3 |
| 20260507153018 | 15 | 331 | 3.2 | 8.0 | 0.00 | 0.00 | 0.00 | 56 | 1014.6 |
| 20260507152514 | 14 | 290 | 6.4 | 8.0 | 0.00 | 0.00 | 0.00 | 58 | 1014.6 |
| 20260507152010 | 14 | 33 | 3.2 | 9.7 | 0.00 | 0.00 | 0.00 | 62 | 1014.8 |
| 20260507151507 | 14 | 335 | 3.2 | 6.4 | 0.00 | 0.00 | 0.00 | 61 | 1014.6 |
| 20260507151004 | 13 | 330 | 4.8 | 8.0 | 0.00 | 0.00 | 0.00 | 62 | 1014.7 |
| 20260507150500 | 13 | 351 | 4.8 | 9.7 | 0.00 | 0.00 | 0.00 | 63 | 1014.6 |
| 20260507145956 | 13 | 345 | 6.4 | 8.0 | 0.00 | 0.00 | 0.00 | 66 | 1014.8 |
| 20260507145452 | 13 | 335 | 3.2 | 4.8 | 0.00 | 0.00 | 0.00 | 68 | 1014.8 |
| 20260507144950 | 13 | 292 | 9.7 | 12.9 | 0.00 | 0.00 | 0.00 | 67 | 1015.2 |
| 20260507144446 | 13 | 311 | 6.4 | 8.0 | 0.00 | 0.00 | 0.00 | 67 | 1015.2 |
| 20260507143943 | 13 | 198 | 3.2 | 6.4 | 0.00 | 0.00 | 0.00 | 65 | 1015.2 |
| 20260507143441 | 12 | 321 | 4.8 | 6.4 | 0.00 | 0.00 | 0.00 | 72 | 1015.1 |
| 20260507142937 | 12 | 290 | 6.4 | 6.4 | 0.00 | 0.00 | 0.00 | 70 | 1015.4 |
| 20260507142433 | 12 | 246 | 3.2 | 6.4 | 0.00 | 0.00 | 0.00 | 72 | 1015.2 |
| 20260507141931 | 11 | 319 | 6.4 | 9.7 | 0.00 | 0.00 | 0.00 | 74 | 1015.5 |
| 20260507141426 | 11 | 312 | 4.8 | 6.4 | 0.00 | 0.00 | 0.00 | 73 | 1015.7 |
| 20260507140923 | 11 | 328 | 4.8 | 8.0 | 0.00 | 0.00 | 0.00 | 75 | 1015.6 |
| 20260507140420 | 11 | 335 | 6.4 | 6.4 | 0.00 | 0.00 | 0.00 | 77 | 1015.9 |
| 20260507135918 | 11 | 327 | 0.0 | 8.0 | 0.00 | 0.00 | 0.00 | 79 | 1015.8 |
| 20260507135414 | 11 | 325 | 4.8 | 8.0 | 0.00 | 0.00 | 0.00 | 79 | 1016.0 |
| 20260507134912 | 11 | 273 | 1.6 | 8.0 | 0.00 | 0.00 | 0.00 | 80 | 1015.6 |
| 20260507134408 | 11 | 352 | 4.8 | 8.0 | 0.00 | 0.00 | 0.00 | 82 | 1015.8 |
| 20260507133904 | 11 | 312 | 3.2 | 6.4 | 0.00 | 0.00 | 0.00 | 79 | 1016.0 |
| 20260507133400 | 11 | 339 | 8.0 | 9.7 | 0.00 | 0.00 | 0.00 | 78 | 1016.0 |
| 20260507132859 | 10 | 324 | 4.8 | 8.0 | 0.00 | 0.00 | 0.00 | 79 | 1016.2 |
| 20260507132355 | 10 | 305 | 6.4 | 6.4 | 0.00 | 0.00 | 0.00 | 81 | 1016.2 |
| 20260507131852 | 10 | 324 | 4.8 | 6.4 | 0.00 | 0.00 | 0.00 | 82 | 1016.2 |
| 20260507131348 | 10 | 298 | 6.4 | 6.4 | 0.00 | 0.00 | 0.00 | 82 | 1016.2 |
| 20260507130846 | 10 | 322 | 6.4 | 8.0 | 0.00 | 0.00 | 0.00 | 83 | 1016.3 |
| 20260507130342 | 10 | 212 | 0.0 | 6.4 | 0.00 | 0.00 | 0.00 | 82 | 1016.2 |
| 20260507125842 | 10 | 328 | 6.4 | 6.4 | 0.00 | 0.00 | 0.00 | 82 | 1016.2 |
| 20260507125338 | 10 | 321 | 4.8 | 9.7 | 0.00 | 0.00 | 0.00 | 82 | 1016.2 |
| 20260507124836 | 10 | 307 | 4.8 | 6.4 | 0.00 | 0.00 | 0.00 | 85 | 1016.3 |
| 20260507124332 | 10 | 332 | 3.2 | 4.8 | 0.00 | 0.00 | 0.00 | 84 | 1016.0 |
| 20260507123831 | 10 | 338 | 1.6 | 4.8 | 0.00 | 0.00 | 0.00 | 86 | 1016.3 |
| 20260507123327 | 10 | 277 | 3.2 | 4.8 | 0.00 | 0.00 | 0.00 | 88 | 1016.0 |
| 20260507122823 | 10 | 316 | 3.2 | 4.8 | 0.00 | 0.00 | 0.00 | 87 | 1016.1 |
| 20260507122319 | 10 | 334 | 3.2 | 4.8 | 0.00 | 0.00 | 0.00 | 88 | 1015.8 |
| 20260507121815 | 10 | 293 | 3.2 | 3.2 | 0.00 | 0.00 | 0.00 | 88 | 1015.9 |
| 20260507121311 | 10 | 296 | 4.8 | 6.4 | 0.00 | 0.00 | 0.00 | 89 | 1015.8 |
| 20260507120808 | 10 | 337 | 3.2 | 4.8 | 0.00 | 0.00 | 0.00 | 88 | 1015.8 |
| 20260507120304 | 10 | 286 | 3.2 | 3.2 | 0.00 | 0.00 | 0.00 | 87 | 1015.6 |
| 20260507115801 | 10 | 335 | 3.2 | 4.8 | 0.00 | 0.00 | 0.00 | 87 | 1015.7 |
| 20260507115256 | 10 | 339 | 1.6 | 4.8 | 0.00 | 0.00 | 0.00 | 87 | 1015.8 |
| 20260507114752 | 10 | 289 | 3.2 | 6.4 | 0.00 | 0.00 | 0.00 | 89 | 1015.7 |
| 20260507114250 | 10 | 309 | 4.8 | 6.4 | 0.00 | 0.00 | 0.00 | 87 | 1015.6 |
| 20260507113747 | 10 | 318 | 3.2 | 4.8 | 0.00 | 0.00 | 0.00 | 88 | 1015.8 |
| 20260507113244 | 10 | 328 | 1.6 | 4.8 | 0.00 | 0.00 | 0.00 | 88 | 1015.8 |
| 20260507112742 | 10 | 329 | 1.6 | 4.8 | 0.00 | 0.00 | 0.00 | 88 | 1015.6 |
| 20260507112238 | 10 | 308 | 4.8 | 4.8 | 0.00 | 0.00 | 0.00 | 88 | 1015.4 |
| 20260507111736 | 10 | 313 | 4.8 | 6.4 | 0.00 | 0.00 | 0.00 | 91 | 1015.3 |
| 20260507111232 | 10 | 276 | 3.2 | 8.0 | 0.00 | 0.00 | 0.00 | 90 | 1015.2 |
| 20260507110728 | 10 | 309 | 0.0 | 3.2 | 0.00 | 0.00 | 0.00 | 90 | 1015.2 |
| 20260507110225 | 10 | 309 | 3.2 | 3.2 | 0.00 | 0.00 | 0.00 | 89 | 1015.3 |
| 20260507105722 | 10 | 295 | 1.6 | 3.2 | 0.00 | 0.00 | 0.00 | 90 | 1015.3 |
| 20260507105218 | 10 | 316 | 3.2 | 3.2 | 0.00 | 0.00 | 0.00 | 90 | 1015.2 |
| 20260507104716 | 10 | 256 | 3.2 | 6.4 | 0.00 | 0.00 | 0.00 | 90 | 1015.1 |
| 20260507104212 | 10 | 353 | 1.6 | 3.2 | 0.00 | 0.00 | 0.00 | 90 | 1015.1 |
| 20260507103708 | 10 | 260 | 0.0 | 3.2 | 0.00 | 0.00 | 0.00 | 90 | 1015.3 |
| 20260507103205 | 10 | 286 | 1.6 | 3.2 | 0.00 | 0.00 | 0.00 | 91 | 1015.2 |
| 20260507102701 | 10 | 324 | 3.2 | 4.8 | 0.00 | 0.00 | 0.00 | 91 | 1015.2 |
| 20260507102158 | 10 | 229 | 1.6 | 3.2 | 0.00 | 0.00 | 0.00 | 90 | 1015.1 |
| 20260507101653 | 10 | 319 | 3.2 | 4.8 | 0.00 | 0.00 | 0.00 | 91 | 1015.1 |
| 20260507101149 | 9 | 252 | 1.6 | 4.8 | 0.00 | 0.00 | 0.00 | 91 | 1015.2 |
| 20260507100647 | 10 | 285 | 1.6 | 6.4 | 0.00 | 0.00 | 0.00 | 90 | 1014.9 |
| 20260507100145 | 10 | 322 | 3.2 | 4.8 | 0.00 | 0.00 | 0.00 | 91 | 1015.2 |
| 20260507095643 | 9 | 288 | 1.6 | 3.2 | 0.00 | 0.00 | 0.00 | 91 | 1014.9 |
| 20260507095139 | 9 | 278 | 0.0 | 3.2 | 0.00 | 0.00 | 0.00 | 92 | 1015.1 |
| 20260507094635 | 9 | 301 | 1.6 | 4.8 | 0.00 | 0.00 | 0.00 | 91 | 1014.9 |
| 20260507094132 | 9 | 152 | 1.6 | 4.8 | 0.00 | 0.00 | 0.00 | 91 | 1014.9 |
| 20260507093629 | 9 | 326 | 4.8 | 4.8 | 0.00 | 0.00 | 0.00 | 91 | 1015.1 |
| 20260507093128 | 9 | 310 | 1.6 | 4.8 | 0.00 | 0.00 | 0.00 | 92 | 1014.8 |
| 20260507092624 | 9 | 349 | 6.4 | 8.0 | 0.00 | 0.00 | 0.00 | 92 | 1014.6 |
| 20260507092121 | 9 | 321 | 6.4 | 9.7 | 0.00 | 0.00 | 0.00 | 92 | 1014.7 |
| 20260507091618 | 9 | 315 | 6.4 | 8.0 | 0.00 | 0.00 | 0.00 | 92 | 1014.8 |
| 20260507091114 | 9 | 1 | 3.2 | 4.8 | 0.00 | 0.00 | 0.00 | 93 | 1014.8 |
| 20260507090610 | 9 | 268 | 3.2 | 3.2 | 0.00 | 0.00 | 0.00 | 93 | 1014.6 |
| 20260507090107 | 8 | 228 | 3.2 | 6.4 | 0.00 | 0.00 | 0.00 | 92 | 1014.6 |
| 20260507085604 | 9 | 251 | 0.0 | 6.4 | 0.00 | 0.00 | 0.00 | 92 | 1014.7 |
| 20260507085100 | 9 | 356 | 3.2 | 3.2 | 0.00 | 0.00 | 0.00 | 91 | 1014.9 |
| 20260507084557 | 9 | 353 | 0.0 | 3.2 | 0.00 | 0.00 | 0.00 | 92 | 1014.9 |
| 20260507084054 | 9 | 306 | 4.8 | 6.4 | 0.00 | 0.00 | 0.00 | 91 | 1014.5 |
| 20260507083550 | 10 | 297 | 6.4 | 6.4 | 0.00 | 0.00 | 0.00 | 90 | 1014.5 |
| 20260507083048 | 10 | 339 | 4.8 | 6.4 | 0.00 | 0.00 | 0.00 | 90 | 1014.5 |
| 20260507082544 | 10 | 325 | 4.8 | 6.4 | 0.00 | 0.00 | 0.00 | 90 | 1014.3 |
| 20260507082041 | 10 | 308 | 8.0 | 9.7 | 0.00 | 0.00 | 0.00 | 90 | 1014.6 |
| 20260507081536 | 10 | 344 | 6.4 | 9.7 | 0.00 | 0.00 | 0.00 | 90 | 1014.9 |
| 20260507081034 | 10 | 329 | 6.4 | 9.7 | 0.00 | 0.00 | 0.00 | 89 | 1014.6 |
| 20260507080529 | 10 | 338 | 6.4 | 8.0 | 0.00 | 0.00 | 0.00 | 89 | 1014.7 |
| 20260507080026 | 10 | 323 | 4.8 | 8.0 | 0.00 | 0.00 | 0.00 | 88 | 1014.8 |
| 20260507075521 | 10 | 323 | 4.8 | 4.8 | 0.00 | 0.00 | 0.00 | 88 | 1014.9 |
| 20260507075018 | 10 | 347 | 4.8 | 8.0 | 0.00 | 0.00 | 0.00 | 88 | 1014.9 |
| 20260507074514 | 11 | 318 | 4.8 | 6.4 | 0.00 | 0.00 | 0.00 | 88 | 1014.9 |
| 20260507074013 | 11 | 333 | 4.8 | 6.4 | 0.00 | 0.00 | 0.00 | 88 | 1014.8 |
| 20260507073509 | 11 | 335 | 4.8 | 8.0 | 0.00 | 0.00 | 0.00 | 87 | 1014.6 |
| 20260507073006 | 11 | 338 | 4.8 | 8.0 | 0.00 | 0.00 | 0.00 | 88 | 1014.6 |
| 20260507072503 | 11 | 331 | 4.8 | 9.7 | 0.00 | 0.00 | 0.00 | 87 | 1014.6 |
| 20260507072000 | 11 | 343 | 3.2 | 6.4 | 0.00 | 0.00 | 0.00 | 88 | 1014.5 |
| 20260507071457 | 11 | 349 | 4.8 | 9.7 | 0.00 | 0.00 | 0.00 | 88 | 1014.8 |
| 20260507070954 | 11 | 290 | 3.2 | 8.0 | 0.00 | 0.00 | 0.00 | 88 | 1014.5 |
| 20260507070451 | 11 | 335 | 6.4 | 6.4 | 0.00 | 0.00 | 0.00 | 88 | 1014.5 |
| 20260507065948 | 11 | 335 | 6.4 | 9.7 | 0.00 | 0.00 | 0.00 | 87 | 1014.2 |
| 20260507065444 | 11 | 313 | 4.8 | 6.4 | 0.00 | 0.00 | 0.00 | 87 | 1014.4 |
| 20260507064942 | 11 | 349 | 8.0 | 11.3 | 0.00 | 0.00 | 0.00 | 87 | 1014.3 |
| 20260507064440 | 12 | 327 | 8.0 | 8.0 | 0.00 | 0.00 | 0.00 | 86 | 1014.2 |
| 20260507063937 | 12 | 328 | 1.6 | 8.0 | 0.00 | 0.00 | 0.00 | 87 | 1014.4 |
| 20260507063434 | 12 | 332 | 4.8 | 12.9 | 0.00 | 0.00 | 0.00 | 86 | 1014.5 |
| 20260507062931 | 12 | 331 | 6.4 | 8.0 | 0.00 | 0.00 | 0.00 | 86 | 1014.1 |
| 20260507062429 | 12 | 347 | 3.2 | 6.4 | 0.00 | 0.00 | 0.00 | 86 | 1014.3 |
| 20260507061926 | 12 | 334 | 6.4 | 11.3 | 0.00 | 0.00 | 0.00 | 86 | 1014.5 |
| 20260507061424 | 12 | 336 | 4.8 | 8.0 | 0.00 | 0.00 | 0.00 | 86 | 1014.3 |
| 20260507060922 | 12 | 347 | 9.7 | 14.5 | 0.00 | 0.00 | 0.00 | 85 | 1014.4 |
| 20260507060418 | 13 | 346 | 4.8 | 9.7 | 0.00 | 0.00 | 0.00 | 85 | 1014.4 |
| 20260507055915 | 13 | 340 | 6.4 | 9.7 | 0.00 | 0.00 | 0.00 | 85 | 1014.4 |
| 20260507055410 | 13 | 329 | 6.4 | 6.4 | 0.00 | 0.00 | 0.00 | 84 | 1014.2 |
| 20260507054907 | 13 | 338 | 6.4 | 8.0 | 0.00 | 0.00 | 0.00 | 84 | 1014.5 |
| 20260507054403 | 13 | 335 | 6.4 | 8.0 | 0.00 | 0.00 | 0.00 | 83 | 1014.5 |
| 20260507053901 | 13 | 337 | 6.4 | 9.7 | 0.00 | 0.00 | 0.00 | 83 | 1014.8 |
| 20260507053358 | 13 | 326 | 6.4 | 12.9 | 0.00 | 0.00 | 0.00 | 83 | 1014.6 |
| 20260507052857 | 13 | 347 | 3.2 | 8.0 | 0.00 | 0.00 | 0.00 | 83 | 1014.4 |
| 20260507052354 | 13 | 359 | 1.6 | 6.4 | 0.00 | 0.00 | 0.00 | 84 | 1014.5 |
| 20260507051851 | 13 | 320 | 6.4 | 6.4 | 0.00 | 0.00 | 0.00 | 83 | 1014.5 |
| 20260507051349 | 13 | 344 | 6.4 | 8.0 | 0.00 | 0.00 | 0.00 | 83 | 1014.5 |
| 20260507050845 | 14 | 331 | 8.0 | 9.7 | 0.00 | 0.00 | 0.00 | 83 | 1014.2 |
| 20260507050342 | 14 | 340 | 6.4 | 9.7 | 0.00 | 0.00 | 0.00 | 83 | 1014.2 |
| 20260507045838 | 14 | 337 | 8.0 | 8.0 | 0.00 | 0.00 | 0.00 | 83 | 1014.2 |
| 20260507045335 | 15 | 328 | 8.0 | 9.7 | 0.00 | 0.00 | 0.00 | 82 | 1014.2 |
| 20260507044832 | 15 | 324 | 3.2 | 6.4 | 0.00 | 0.00 | 0.00 | 82 | 1014.0 |
| 20260507044329 | 15 | 339 | 8.0 | 11.3 | 0.00 | 0.00 | 0.00 | 81 | 1014.0 |
| 20260507043825 | 15 | 340 | 4.8 | 6.4 | 0.00 | 0.00 | 0.00 | 81 | 1014.0 |
| 20260507043321 | 15 | 331 | 3.2 | 8.0 | 0.00 | 0.00 | 0.00 | 81 | 1013.8 |
| 20260507042818 | 15 | 315 | 4.8 | 9.7 | 0.00 | 0.00 | 0.00 | 81 | 1013.9 |
| 20260507042314 | 15 | 319 | 6.4 | 6.4 | 0.00 | 0.00 | 0.00 | 81 | 1013.9 |
| 20260507041811 | 15 | 297 | 3.2 | 4.8 | 0.00 | 0.00 | 0.00 | 81 | 1013.8 |
| 20260507041307 | 15 | 306 | 6.4 | 8.0 | 0.00 | 0.00 | 0.00 | 82 | 1013.4 |
| 20260507040805 | 15 | 341 | 4.8 | 6.4 | 0.00 | 0.00 | 0.00 | 82 | 1013.7 |
| 20260507040300 | 15 | 343 | 8.0 | 8.0 | 0.00 | 0.00 | 0.00 | 82 | 1013.1 |
| 20260507035756 | 15 | 346 | 6.4 | 6.4 | 0.00 | 0.28 | 0.28 | 82 | 1013.5 |
| 20260507035252 | 15 | 339 | 6.4 | 6.4 | 0.00 | 0.28 | 0.28 | 82 | 1013.0 |
| 20260507034750 | 15 | 203 | 3.2 | 4.8 | 0.00 | 0.28 | 0.28 | 82 | 1012.6 |
| 20260507034246 | 15 | 252 | 0.0 | 3.2 | 0.00 | 0.28 | 0.28 | 80 | 1013.1 |
| 20260507033745 | 15 | 269 | 0.0 | 1.6 | 0.00 | 0.28 | 0.28 | 83 | 1013.8 |
| 20260507033242 | 15 | 214 | 0.0 | 4.8 | 0.00 | 0.28 | 0.28 | 81 | 1013.7 |
| 20260507032739 | 15 | 123 | 3.2 | 4.8 | 0.00 | 0.28 | 0.28 | 83 | 1014.5 |
| 20260507032235 | 15 | 340 | 3.2 | 3.2 | 0.00 | 0.28 | 0.28 | 84 | 1014.6 |
| 20260507031732 | 15 | 306 | 1.6 | 1.6 | 0.00 | 0.28 | 0.28 | 84 | 1014.5 |
| 20260507031229 | 16 | 263 | 1.6 | 3.2 | 0.00 | 0.28 | 0.28 | 83 | 1014.5 |
| 20260507030725 | 16 | 248 | 0.0 | 1.6 | 0.00 | 0.28 | 0.28 | 82 | 1014.2 |
| 20260507030223 | 15 | 158 | 3.2 | 3.2 | 0.00 | 0.28 | 0.28 | 84 | 1014.2 |
| 20260507025720 | 15 | 289 | 0.0 | 3.2 | 0.00 | 0.28 | 0.28 | 84 | 1014.3 |
| 20260507025217 | 15 | 322 | 0.0 | 3.2 | 0.00 | 0.28 | 0.28 | 84 | 1014.1 |
| 20260507024715 | 16 | 304 | 1.6 | 3.2 | 0.00 | 0.28 | 0.28 | 81 | 1013.6 |
| 20260507024212 | 16 | 310 | 0.0 | 1.6 | 0.00 | 0.28 | 0.28 | 79 | 1013.2 |
| 20260507023707 | 16 | 181 | 3.2 | 3.2 | 0.00 | 0.28 | 0.28 | 81 | 1013.4 |